TimeGMT,TemperatureF,Dew PointF,Humidity,Sea Level PressureIn,VisibilityMPH,Wind Direction,Wind SpeedMPH,Gust SpeedMPH,PrecipitationIn,Events,Conditions,WindDirDegrees,DateUTC
5:20 AM,33.8,32.0,93,29.36,-9999.0,South,8.1,-,N/A,,Clear,190,2012-11-04 05:20:00
5:50 AM,33.8,32.0,93,29.36,-9999.0,South,8.1,-,N/A,,Clear,190,2012-11-04 05:50:00
6:20 AM,33.8,32.0,93,29.36,-9999.0,South,8.1,-,N/A,,Clear,180,2012-11-04 06:20:00
7:20 AM,32.0,30.2,93,29.39,6.2,South,3.5,-,N/A,,Partly Cloudy,170,2012-11-04 07:20:00
7:50 AM,33.8,32.0,93,29.39,5.6,SSW,2.3,-,N/A,,Partly Cloudy,200,2012-11-04 07:50:00
8:20 AM,32.0,30.2,93,29.39,5.0,Calm,Calm,-,N/A,,Partly Cloudy,0,2012-11-04 08:20:00
8:50 AM,33.8,32.0,93,29.39,5.0,WSW,3.5,-,N/A,,Partly Cloudy,240,2012-11-04 08:50:00
9:20 AM,33.8,32.0,93,29.39,3.1,West,5.8,-,N/A,,Partly Cloudy,270,2012-11-04 09:20:00
9:50 AM,33.8,32.0,93,29.39,0.2,West,3.5,-,N/A,Fog,Fog,270,2012-11-04 09:50:00
10:20 AM,32.0,32.0,100,29.39,0.2,Variable,3.5,-,N/A,Fog,Fog,0,2012-11-04 10:20:00
10:50 AM,33.8,32.0,93,29.39,0.2,WSW,4.6,-,N/A,Fog,Fog,250,2012-11-04 10:50:00
11:20 AM,33.8,32.0,93,29.39,0.2,West,4.6,-,N/A,Fog,Fog,270,2012-11-04 11:20:00
11:50 AM,33.8,32.0,93,29.39,0.2,NW,4.6,-,N/A,Fog,Fog,310,2012-11-04 11:50:00
12:20 PM,33.8,33.8,100,29.39,0.4,NW,4.6,-,N/A,Fog,Fog,320,2012-11-04 12:20:00
12:50 PM,33.8,33.8,100,29.39,0.7,WNW,4.6,-,N/A,,Mist,290,2012-11-04 12:50:00
1:20 PM,35.6,33.8,93,29.39,0.7,NW,4.6,-,N/A,,Mist,310,2012-11-04 13:20:00
1:50 PM,35.6,33.8,93,29.39,0.7,NW,5.8,-,N/A,,Overcast,310,2012-11-04 13:50:00
2:20 PM,35.6,33.8,93,29.39,0.7,NNW,5.8,-,N/A,,Overcast,330,2012-11-04 14:20:00
2:50 PM,37.4,35.6,93,29.39,0.9,NNW,4.6,-,N/A,,Overcast,330,2012-11-04 14:50:00
3:20 PM,37.4,35.6,93,29.39,0.9,NNW,3.5,-,N/A,,Mostly Cloudy,330,2012-11-04 15:20:00
3:50 PM,37.4,35.6,93,29.39,0.9,Variable,2.3,-,N/A,,Mist,0,2012-11-04 15:50:00
4:20 PM,35.6,35.6,100,29.42,0.1,Calm,Calm,-,N/A,Fog,Fog,0,2012-11-04 16:20:00
4:50 PM,35.6,33.8,93,29.42,0.1,Calm,Calm,-,N/A,Fog,Fog,0,2012-11-04 16:50:00
5:20 PM,33.8,33.8,100,29.42,0.2,West,2.3,-,N/A,Fog,Fog,260,2012-11-04 17:20:00
5:50 PM,33.8,32.0,93,29.44,0.5,Calm,Calm,-,N/A,Fog,Fog,0,2012-11-04 17:50:00
6:20 PM,33.8,32.0,93,29.44,0.7,Variable,2.3,-,N/A,,Partly Cloudy,0,2012-11-04 18:20:00
6:50 PM,32.0,30.2,93,29.44,1.0,Variable,2.3,-,N/A,,Partly Cloudy,0,2012-11-04 18:50:00
7:20 PM,30.2,30.2,100,29.44,1.1,Variable,2.3,-,N/A,,Partly Cloudy,0,2012-11-04 19:20:00
7:50 PM,30.2,30.2,100,29.47,0.6,Calm,Calm,-,N/A,,Partly Cloudy,0,2012-11-04 19:50:00
8:20 PM,30.2,28.4,93,29.47,0.5,Variable,2.3,-,N/A,Fog,Light Freezing Fog,0,2012-11-04 20:20:00
8:50 PM,30.2,30.2,100,29.50,1.9,WNW,4.6,-,N/A,,Partly Cloudy,300,2012-11-04 20:50:00
9:20 PM,32.0,32.0,100,29.50,2.8,NNW,5.8,-,N/A,,Partly Cloudy,330,2012-11-04 21:20:00
9:50 PM,35.6,35.6,100,29.50,3.7,NNW,8.1,-,N/A,,Partly Cloudy,340,2012-11-04 21:50:00